Location: Presov
(49.0000°N, 21.2500°E)
Time: 20:25:12
(UTC+02:00)

ISS - Pass Details

Date: 20 May 2025
Orbit: 415 x 417 km, 51.6° (Epoch: 16 June)

Event Time Altitude Azimuth Distance (km) Brightness Sun altitude
Rises 21:28:27 0° 288° (WNW) 2,362 1.2 -9.8°
Reaches altitude 10° 21:30:33 10° 290° (WNW) 1,496 0.1 -10.0°
Maximum altitude 21:33:55 76° 16° (NNE) 434 -3.6 -10.4°
Enters shadow 21:36:58 12° 103° (ESE) 1,375 -1.6 -10.7°
